Regional Weather Roundup
Issued by NWS

Home | Current Version | Previous Version | Text Only | Print | Product List | Glossary Off
Versions: 1 2 3 4 5 6 7 8 9 10 11 12 13 14 15 16 17 18 19 20 21 22 23 24 25 26 27 28 29 30 31 32 33 34 35 36 37 38 39 40 41 42 43 44 45 46 47 48 49 50

000
ASUS43 KDTX 212010
RWRMI
MICHIGAN HOURLY REGIONAL WEATHER ROUNDUP
NATIONAL WEATHER SERVICE DETROIT/PONTIAC MI
400 PM EDT TUE OCT 21 2014

NOTE: "FAIR" INDICATES FEW OR NO CLOUDS BELOW 12,000 FEET WITH NO
SIGNIFICANT WEATHER AND/OR OBSTRUCTION TO VISIBILITY.

MIZ047>049-052>055-059>063-066>070-074>076-081>083-212100-
SOUTHEAST LOWER MICHIGAN

CITY           SKY/WX    TMP DP  RH WIND       PRES   REMARKS
ADRIAN         CLOUDY    47  37  68 N10G21    30.11R
ALMA           MOSUNNY   50  34  55 N5        30.15R
ANN ARBOR      CLOUDY    46  36  68 N17G25    30.10R
BAD AXE        CLOUDY    43  38  80 N13G24    30.12R
DETROIT CITY   CLOUDY    48  38  68 N17G31    30.08R
DETROIT        CLOUDY    47  39  74 NW10      30.08R
FLINT          CLOUDY    46  37  71 N18G26    30.13R
GROSSE ILE     CLOUDY    48  39  71 NW14G21   30.06R
HILLSDALE      CLOUDY    47  39  73 N7        30.10R
HOWELL         CLOUDY    43  36  75 N9G16     30.11R

CITY           SKY/WX    TMP DP  RH WIND       PRES   REMARKS
JACKSON        CLOUDY    46  38  73 N8        30.12R
LAMBERTVILLE   CLOUDY    48  37  66 N7        30.09S
LANSING        CLOUDY    47  35  63 N12       30.14R
LAPEER         NOT AVBL
MASON          CLOUDY    46  37  71 N10       30.12R
MONROE         CLOUDY    46  39  76 N12G24    30.07R
MT. CLEMENS    CLOUDY    45  41  84 N18G31    30.05R
PONTIAC        CLOUDY    44  36  73 N16G22    30.08R
PORT HOPE        N/A     46  37  71 N14G31    30.11R
PORT HURON     CLOUDY    45  41  87 N10G18    30.06R
TRI CITIES     LGT RAIN  49  35  58 NE14      30.15R
YPSILANTI      CLOUDY    50  38  63 N15       30.09R
$$
MIZ043>046-050>051-056>058-064>065-071>073-077>080-212100-
SOUTHWEST LOWER MICHIGAN

CITY           SKY/WX    TMP DP  RH WIND       PRES   REMARKS
BATTLE CREEK   CLOUDY    48  37  65 NE9       30.13S
BENTON HARBOR  CLOUDY    49  39  68 N8        30.15R
BIG RAPIDS     SUNNY     50  37  62 N9        30.14S
COLDWATER      CLOUDY    49  39  69 N12       30.11S
HOLLAND        CLOUDY    52  39  61 NE5       30.16S
GRAND RAPIDS   PTSUNNY   50  38  63 N9        30.15S
KALAMAZOO      CLOUDY    48  39  71 N13       30.14R
MARSHALL       CLOUDY    46  36  67 N3        30.12R
MUSKEGON       PTSUNNY   55  36  48 NE9       30.16S
$$
MIZ016>042-212100-
NORTHERN LOWER MICHIGAN

CITY           SKY/WX    TMP DP  RH WIND       PRES   REMARKS
ALPENA         PTSUNNY   46  31  55 N20       30.19R
BEAVER ISLAND  SUNNY     48  32  53 NE7       30.22R
BELLAIRE       SUNNY     51  28  41 NE9       30.19S
CADILLAC       SUNNY     49  32  52 NE9       30.14R
CHARLEVOIX     SUNNY     47  34  61 N13       30.23S
FRANKFORT      CLEAR     50  35  56 N9G17     30.20R
GAYLORD        SUNNY     46  27  47 N8        30.17R
GRAYLING       SUNNY     50  27  41 N10       30.16S
HARBOR SPRINGS SUNNY     49  27  43 N8        30.20R
HOUGHTON LAKE  SUNNY     51  26  37 N9G17     30.15R
MANISTEE       SUNNY     50  34  53 NW15      30.18S
OSCODA         CLOUDY    46  33  61 N18       30.15R
PELLSTON       SUNNY     48  27  44 N7        30.21S
TRAVERSE CITY  MOSUNNY   48  33  56 N9        30.18S
$$
MIZ007>008-015-212100-
EASTERN UPPER MICHIGAN

CITY           SKY/WX    TMP DP  RH WIND       PRES   REMARKS
KINROSS        SUNNY     46  27  46 NE10      30.21S
MACKINAC ISLAN SUNNY     47  28  46 N7        30.21R
NEWBERRY       SUNNY     44  32  62 N12G20    30.22R
S. S. MARIE    SUNNY     48  27  44 N5        30.21S
$$
MIZ004>006-011>014-085-212100-
CENTRAL UPPER MICHIGAN

CITY           SKY/WX    TMP DP  RH WIND       PRES   REMARKS
MANISTIQUE     SUNNY     49  31  50 N10       30.21S
ESCANABA       SUNNY     50  21  32 N7        30.23R
MENOMINEE      SUNNY     50  36  57 E8        30.22S
SAWYER-GWINN   SUNNY     41  30  65 N9        30.26R
$$
MIZ001>003-009>011-084-212100-
WESTERN UPPER MICHIGAN

CITY           SKY/WX    TMP DP  RH WIND       PRES   REMARKS
IRON MOUNTAIN  SUNNY     50  28  42 CALM      30.22S
HOUGHTON       SUNNY     46  31  55 VRB5      30.25F
COPPER HARBOR    N/A     43  33  68 VRB6      30.28F
IRONWOOD       MOSUNNY   45  37  76 S5        30.22S
$$

ABBREVIATIONS USED IN REMARKS
   TC - TEMPERATURE IN CELSIUS
  WCI - WIND CHILL INDEX
   HX - HEAT INDEX
  VSB - VISIBILITY




USA.gov is the U.S. government's official web portal to all federal, state and local government web resources and services.